Temperature
14 14 14 14 14 13 13 13 12 10 9 7 6 5 4 3 2 1 1 0 -0 -1 -1 -2 -2 -3 -4 -5 -7 -8 -9 -9 -10 -9 -8 -8 -8 -8 -8 -8 -9 -9 -9
14 14 14 13 13 13 13 12 11 9 8 7 5 4 3 2 1 1 0 -0 -1 -1 -1 -2 -3 -3 -4 -5 -6 -7 -8 -9 -9 -9 -9 -8 -8 -8 -8 -9 -9 -9 -9
13 13 13 13 13 12 12 11 10 9 7 6 5 3 2 1 0 0 0 -1 -1 -1 -2 -2 -3 -4 -4 -5 -6 -7 -8 -9 -9 -9 -9 -9 -8 -8 -8 -8 -9 -9 -9
12 12 12 12 12 11 11 10 9 8 7 5 4 3 1 0 -0 -0 -0 -1 -2 -2 -2 -3 -3 -4 -4 -5 -6 -7 -8 -9 -9 -9 -9 -8 -8 -8 -8 -8 -9 -9 -9
11 11 11 11 11 10 10 9 8 7 6 4 3 1 0 -1 -1 -1 -2 -2 -2 -2 -2 -3 -3 -3 -4 -5 -6 -6 -7 -8 -8 -8 -8 -8 -8 -8 -8 -8 -9 -9 -9
10 10 10 10 10 10 9 8 8 7 5 4 3 1 -0 -1 -2 -2 -3 -3 -3 -3 -3 -3 -3 -4 -4 -5 -6 -7 -7 -8 -8 -8 -8 -8 -8 -8 -8 -9 -9 -9 -9
9 9 9 9 9 9 8 8 7 6 5 4 2 1 -0 -2 -2 -3 -3 -4 -3 -3 -3 -4 -4 -4 -4 -5 -6 -7 -8 -8 -8 -8 -8 -8 -9 -9 -9 -10 -10 -10 -10
8 8 8 8 8 8 7 7 6 5 4 3 2 0 -1 -2 -3 -4 -4 -4 -4 -3 -3 -4 -4 -4 -5 -6 -7 -7 -7 -8 -8 -8 -9 -9 -9 -9 -10 -10 -10 -10 -11
7 7 7 7 7 7 6 6 5 4 3 2 1 -1 -2 -3 -4 -4 -5 -5 -5 -4 -4 -4 -4 -4 -5 -6 -7 -8 -8 -8 -8 -8 -9 -9 -9 -9 -10 -10 -11 -11 -11
5 6 6 6 6 6 5 5 4 3 2 1 -1 -2 -3 -4 -4 -4 -5 -5 -5 -5 -4 -5 -4 -4 -5 -6 -7 -8 -8 -8 -8 -9 -9 -9 -9 -10 -10 -11 -12 -12 -12
4 5 5 5 5 5 5 4 3 2 1 -0 -2 -3 -4 -4 -5 -5 -5 -5 -5 -5 -5 -5 -4 -4 -5 -7 -7 -8 -8 -8 -9 -9 -9 -10 -10 -10 -11 -11 -12 -12 -13
4 4 4 4 4 4 4 3 3 1 -0 -1 -3 -4 -5 -5 -5 -5 -5 -5 -5 -4 -5 -5 -5 -5 -6 -7 -7 -8 -8 -9 -9 -9 -10 -10 -10 -11 -11 -11 -12 -12 -12
3 3 3 3 3 3 2 2 1 0 -1 -2 -4 -5 -5 -5 -5 -5 -5 -5 -5 -5 -5 -5 -5 -6 -7 -7 -7 -8 -8 -9 -9 -10 -10 -10 -11 -11 -11 -12 -12 -12 -12
1 1 1 1 2 2 2 1 1 -0 -2 -3 -4 -5 -6 -6 -6 -5 -5 -5 -5 -5 -5 -6 -6 -6 -7 -7 -8 -8 -9 -9 -10 -10 -10 -11 -11 -11 -12 -12 -12 -12 -12
0 0 0 0 0 1 1 1 0 -1 -2 -3 -4 -5 -6 -6 -5 -5 -5 -5 -5 -5 -5 -6 -7 -7 -7 -8 -8 -8 -9 -9 -10 -10 -11 -11 -11 -11 -12 -12 -12 -12 -13
-1 -1 -1 -1 -1 -0 -0 -0 -0 -1 -2 -3 -4 -6 -6 -6 -6 -6 -6 -5 -5 -5 -6 -6 -7 -7 -7 -8 -8 -9 -9 -9 -10 -10 -11 -11 -11 -12 -12 -12 -12 -13 -13
-1 -1 -2 -1 -1 -1 -1 -1 -2 -2 -2 -3 -4 -6 -7 -7 -7 -7 -6 -6 -6 -6 -7 -7 -7 -7 -7 -8 -8 -9 -9 -9 -10 -10 -11 -11 -11 -12 -12 -12 -12 -12 -13
-2 -2 -2 -2 -2 -2 -2 -2 -3 -3 -4 -4 -5 -5 -6 -7 -7 -7 -6 -6 -6 -7 -7 -7 -7 -7 -7 -8 -8 -9 -9 -10 -10 -10 -11 -11 -12 -12 -12 -12 -12 -13 -13
-2 -2 -2 -2 -2 -2 -3 -3 -3 -4 -5 -5 -6 -6 -6 -7 -7 -7 -6 -6 -6 -6 -6 -7 -7 -7 -7 -8 -8 -9 -9 -10 -10 -10 -11 -11 -12 -12 -12 -12 -13 -13 -13
-2 -2 -3 -3 -3 -3 -3 -3 -4 -4 -5 -6 -7 -7 -7 -7 -7 -7 -6 -6 -6 -6 -6 -6 -7 -7 -7 -8 -8 -9 -9 -10 -10 -11 -11 -11 -12 -12 -12 -13 -13 -13 -13
-3 -3 -3 -3 -3 -3 -3 -4 -4 -5 -5 -6 -7 -7 -7 -7 -7 -6 -6 -6 -6 -6 -6 -6 -7 -7 -8 -8 -9 -9 -9 -10 -10 -11 -11 -11 -12 -12 -12 -12 -13 -13 -13
-3 -3 -3 -3 -3 -3 -4 -4 -4 -5 -5 -6 -7 -8 -8 -8 -7 -7 -6 -6 -6 -6 -6 -6 -7 -7 -8 -8 -9 -9 -10 -10 -10 -11 -11 -11 -12 -12 -12 -13 -13 -13 -13
-3 -3 -3 -3 -3 -3 -4 -4 -4 -5 -6 -7 -7 -8 -8 -8 -7 -7 -6 -6 -6 -6 -6 -7 -7 -7 -8 -8 -9 -9 -10 -10 -10 -11 -11 -11 -12 -12 -12 -13 -13 -13 -12
-3 -3 -3 -3 -3 -4 -4 -4 -5 -5 -6 -7 -8 -8 -8 -8 -8 -7 -7 -6 -6 -6 -6 -7 -7 -7 -8 -8 -9 -9 -10 -10 -10 -11 -11 -11 -12 -12 -12 -12 -12 -12 -12
-3 -3 -3 -3 -4 -4 -4 -5 -5 -6 -6 -7 -8 -8 -8 -8 -8 -7 -7 -6 -6 -6 -6 -7 -7 -8 -8 -9 -9 -9 -10 -10 -11 -11 -11 -11 -12 -12 -12 -12 -12 -12 -12
-3 -3 -3 -4 -4 -4 -5 -5 -6 -6 -7 -7 -8 -8 -8 -8 -7 -7 -7 -6 -6 -6 -7 -7 -7 -8 -8 -9 -9 -10 -10 -10 -11 -11 -11 -11 -12 -12 -12 -12 -12 -12 -12
Wind_Speed
13 15 17 18 18 19 19 21 20 20 20 21 21 21 22 22 22 21 20 19 19 18 16 17 18 16 13 13 13 13 14 14 18 19 18 18 21 21 20 22 24 25 25
11 13 15 16 17 18 20 20 20 20 20 20 20 21 22 22 22 22 22 20 20 20 19 18 18 15 17 15 14 15 15 16 17 21 20 19 21 21 21 22 20 21 23
9 11 13 15 16 18 19 18 18 19 20 20 21 22 22 21 22 22 22 21 20 20 18 18 18 17 17 15 16 15 14 15 16 18 20 18 18 18 20 21 22 19 21
9 11 13 14 15 16 16 17 17 18 19 20 21 21 21 20 21 21 20 20 19 18 18 17 17 17 18 17 15 17 16 16 17 17 18 18 18 19 17 17 18 17 18
10 11 13 13 13 14 15 16 16 17 18 19 20 20 20 19 18 20 19 19 18 18 17 17 18 20 22 19 15 15 16 15 15 16 17 18 18 16 16 16 18 19 19
11 12 12 11 12 13 14 14 16 17 18 18 19 20 21 19 25 31 23 19 18 18 18 17 18 21 23 26 28 26 23 19 17 17 17 19 20 19 18 17 18 20 21
13 12 12 11 12 13 13 14 16 17 17 18 19 21 22 24 30 32 32 20 19 18 18 16 14 15 20 17 21 24 24 27 26 20 21 21 21 20 20 22 20 21 21
14 13 11 11 12 13 13 15 15 15 16 17 19 21 22 23 30 32 32 24 19 18 18 18 17 17 15 16 15 16 18 18 20 16 17 19 19 19 19 20 21 21 22
15 14 12 10 12 13 14 15 14 14 15 16 17 19 21 22 28 31 29 18 18 19 18 18 18 17 20 21 17 17 18 17 19 23 24 24 27 27 23 17 17 17 19
15 15 15 13 13 14 14 14 13 13 14 14 16 18 20 21 25 30 30 16 17 16 15 16 21 21 21 21 17 17 18 16 14 15 17 18 18 19 22 16 15 15 17
16 16 16 15 14 14 14 12 12 12 13 14 16 16 18 20 23 28 30 18 16 15 13 12 13 20 22 22 20 16 17 16 15 14 14 14 13 12 13 12 12 13 15
17 17 16 15 13 11 12 12 11 11 12 13 14 15 14 16 20 24 30 28 21 15 13 11 12 17 19 20 17 16 18 17 12 12 12 13 12 12 12 12 14 15 16
17 17 16 16 14 12 11 11 10 10 11 11 11 12 12 12 15 24 27 29 28 18 13 16 16 17 17 15 15 16 15 11 10 11 12 13 12 13 13 12 14 14 16
17 17 16 15 14 12 10 9 9 10 11 11 12 12 12 11 12 13 15 17 22 20 15 15 18 17 14 12 12 11 9 10 10 11 12 12 12 12 12 12 12 12 13
17 16 15 13 13 12 10 10 11 12 12 12 11 11 11 12 14 18 15 13 13 13 12 9 9 9 9 9 9 9 8 9 10 10 11 11 12 12 12 11 11 12 13
15 15 13 12 12 11 11 11 13 16 18 20 20 17 14 16 16 19 22 21 20 18 13 10 10 10 10 9 9 8 8 8 9 9 10 10 11 12 12 12 11 11 12
15 15 13 12 12 11 10 11 11 11 15 19 21 22 22 19 18 18 20 22 20 18 13 11 10 10 9 9 8 8 8 8 8 9 10 10 11 11 12 12 12 12 12
15 14 13 12 12 11 11 11 10 11 10 9 12 18 20 21 20 19 19 17 13 14 11 11 10 9 8 8 8 8 8 8 8 8 9 10 10 11 11 12 12 12 13
14 12 12 12 12 11 11 10 10 11 10 10 8 9 14 16 18 19 18 12 11 11 11 10 9 8 8 8 7 7 8 8 9 9 9 10 10 11 11 12 12 16 14
13 16 16 13 12 11 10 10 10 10 10 9 8 8 7 8 9 11 13 11 10 10 10 9 8 8 7 7 7 7 7 8 9 9 9 10 10 10 12 13 12 12 12
13 14 17 14 11 11 10 10 10 9 9 9 8 9 10 8 8 10 11 11 10 9 9 8 8 7 7 6 6 7 8 8 8 9 9 9 10 10 11 11 12 12 12
12 12 12 12 11 11 11 10 9 9 9 9 8 8 12 9 8 8 9 9 8 8 7 7 7 6 6 6 6 6 7 8 8 9 9 10 10 11 11 11 12 12 12
13 13 13 12 11 13 12 10 9 8 8 8 7 7 7 7 7 7 7 7 6 6 6 6 6 5 5 5 6 6 7 8 8 9 10 10 11 11 11 12 14 14 13
13 14 14 13 11 10 10 9 8 8 8 7 7 7 7 6 6 7 6 5 5 6 6 6 6 6 7 6 5 6 7 8 9 9 11 11 11 11 12 12 13 14 14
13 13 13 12 11 10 9 8 7 7 7 7 6 6 6 6 6 6 6 6 6 6 6 6 4 5 7 8 7 7 10 13 13 11 9 9 10 12 13 14 13 14 13
13 13 12 11 10 9 8 7 6 6 6 6 6 6 6 6 6 6 6 6 6 5 5 5 5 5 5 6 7 9 12 12 13 13 9 8 10 11 13 12 15 13 14
Wind_Direction
239 236 235 235 234 233 234 235 234 232 227 224 221 216 214 210 206 205 207 207 212 217 219 224 230 234 239 242 244 247 249 252 263 275 280 284 285 284 282 281 280 280 279
252 244 241 239 237 236 237 237 235 233 229 225 222 218 216 213 208 206 207 208 211 217 220 223 230 231 236 242 244 247 250 252 259 272 279 284 284 283 283 282 281 279 278
265 253 250 246 242 241 241 239 236 234 231 226 222 220 217 213 209 208 207 209 212 217 219 222 228 230 236 239 243 247 251 255 258 266 275 280 282 282 283 282 282 280 279
275 261 257 254 250 249 247 243 238 234 231 227 224 222 219 214 211 208 207 209 212 217 220 224 228 229 234 240 244 248 252 257 260 265 271 278 281 283 284 285 286 285 283
285 271 265 263 258 254 250 245 240 235 232 229 226 224 221 217 212 208 206 208 211 217 221 226 230 232 234 238 240 246 249 255 260 266 274 279 282 286 287 290 290 290 287
291 282 277 271 264 257 253 248 242 237 232 229 226 224 222 220 217 212 206 209 212 216 222 227 232 236 240 244 248 251 253 257 265 272 277 279 283 288 293 292 291 290 289
296 290 285 278 269 262 256 250 243 238 233 229 227 225 226 224 220 216 211 208 214 217 221 227 230 233 237 241 250 257 263 266 267 270 274 278 285 289 291 289 286 285 286
299 295 290 280 275 272 263 254 248 241 235 232 229 228 228 227 222 219 216 212 217 220 221 225 231 236 235 239 245 253 258 261 263 265 268 273 276 280 282 284 288 287 285
303 302 298 285 278 275 268 261 254 245 240 235 232 230 230 230 224 221 218 215 219 223 225 228 233 240 243 244 248 256 262 263 266 267 267 272 277 284 288 290 288 287 287
310 308 304 297 287 279 274 268 258 247 243 238 235 232 231 231 225 221 217 215 219 223 226 228 232 237 243 245 247 255 264 271 274 277 277 278 279 282 284 280 280 282 284
312 307 304 300 294 287 282 273 262 250 244 240 239 235 232 231 228 223 218 211 215 219 224 225 228 234 241 246 250 256 264 274 282 281 280 279 280 278 277 273 270 271 276
310 306 304 303 299 290 282 274 261 250 245 243 241 239 234 231 229 226 221 217 214 218 223 226 228 233 240 248 254 259 269 280 280 279 281 283 285 286 286 284 278 271 268
308 306 305 304 300 292 282 273 262 248 243 242 239 238 236 229 227 224 222 221 219 218 224 228 232 237 243 252 256 263 273 274 273 276 280 284 287 289 289 287 283 277 272
306 306 306 306 303 297 284 269 259 250 244 241 240 239 237 232 224 218 216 222 224 225 229 232 235 240 243 249 256 263 263 263 268 274 280 285 289 290 289 290 291 292 289
306 306 306 304 301 298 287 271 261 252 247 243 243 241 239 236 227 215 208 209 211 214 213 219 223 229 235 241 246 252 256 261 267 270 279 286 289 291 292 294 291 291 290
306 306 305 304 302 297 293 287 262 254 257 251 247 246 245 245 242 225 217 215 211 207 206 216 222 228 234 241 248 254 256 261 267 274 279 283 288 292 294 295 293 292 291
302 302 302 300 299 297 293 289 289 277 257 254 252 249 245 243 240 231 220 216 212 205 210 218 223 227 233 240 247 253 259 265 270 274 277 282 287 290 293 296 296 295 294
301 298 297 296 296 295 291 285 281 282 282 270 255 250 247 242 235 228 220 209 206 205 213 220 223 227 232 239 246 251 260 268 270 273 277 281 285 289 293 295 296 297 297
299 296 296 295 293 290 287 282 277 273 272 272 268 255 246 241 230 223 213 206 202 205 211 219 223 226 231 238 244 250 258 266 272 276 280 282 286 290 292 294 296 297 297
296 292 295 294 292 290 286 280 275 271 268 265 260 255 246 231 218 210 206 203 202 205 210 216 220 225 229 235 242 249 258 266 273 276 281 285 288 290 292 295 297 297 295
297 295 295 293 290 288 284 278 273 268 263 260 256 249 239 232 218 207 201 201 201 205 209 213 217 219 225 231 239 248 258 268 275 280 284 288 292 293 294 295 296 295 294
295 293 292 290 288 285 282 276 270 264 258 255 253 247 242 234 224 209 200 197 200 204 205 207 213 217 221 227 237 250 261 270 278 283 286 291 294 296 297 297 297 297 296
294 293 291 288 286 284 282 275 268 260 253 247 242 235 232 227 219 207 197 192 190 192 194 199 208 214 220 228 239 250 262 272 280 286 290 295 298 300 301 300 299 298 296
293 292 292 292 290 285 279 274 267 257 246 239 233 227 223 219 210 198 188 181 181 188 191 197 208 216 223 236 247 255 264 273 282 285 287 291 297 301 302 301 299 297 296
296 295 294 294 291 288 281 272 263 252 237 229 225 220 213 208 197 185 177 177 183 188 191 195 204 217 229 243 259 271 278 284 287 295 296 296 298 301 302 301 300 299 298
299 298 297 295 293 288 280 270 258 242 229 220 215 210 202 197 187 176 172 175 179 182 186 196 207 219 238 254 267 279 288 293 298 307 312 305 306 307 309 305 305 304 300
Height
1431 1429 1428 1426 1425 1423 1421 1420 1419 1417 1416 1415 1414 1414 1415 1417 1420 1423 1425 1429 1431 1433 1434 1435 1435 1436 1435 1434 1432 1430 1428 1424 1418 1411 1410 1407 1404 1400 1395 1392 1387 1381 1376
1427 1424 1422 1420 1417 1415 1413 1411 1409 1407 1405 1404 1404 1403 1404 1405 1408 1411 1414 1417 1420 1422 1424 1425 1426 1426 1425 1424 1422 1420 1418 1415 1411 1404 1400 1398 1394 1391 1386 1382 1377 1372 1366
1423 1420 1416 1413 1410 1407 1404 1402 1399 1397 1395 1393 1392 1391 1391 1393 1396 1399 1403 1406 1409 1412 1414 1415 1416 1416 1415 1414 1413 1411 1409 1406 1403 1398 1391 1389 1385 1381 1377 1371 1367 1361 1356
1419 1414 1410 1407 1403 1399 1396 1393 1390 1387 1385 1383 1381 1381 1381 1382 1384 1388 1391 1395 1398 1401 1403 1405 1406 1406 1405 1405 1403 1401 1400 1397 1395 1390 1384 1380 1376 1372 1368 1362 1356 1352 1346
1413 1409 1404 1400 1395 1391 1387 1384 1380 1377 1375 1373 1371 1370 1370 1371 1372 1376 1380 1384 1388 1391 1393 1395 1395 1396 1395 1395 1393 1391 1390 1388 1386 1382 1377 1372 1368 1364 1360 1355 1348 1342 1336
1407 1402 1397 1392 1387 1383 1379 1375 1371 1368 1365 1363 1360 1360 1359 1359 1361 1366 1370 1374 1378 1380 1382 1384 1385 1386 1386 1385 1384 1383 1383 1380 1377 1374 1369 1364 1359 1356 1352 1346 1340 1333 1324
1399 1394 1389 1384 1379 1375 1370 1366 1362 1358 1355 1352 1350 1349 1348 1349 1352 1356 1360 1364 1368 1370 1373 1375 1375 1376 1376 1375 1374 1373 1372 1371 1369 1366 1361 1356 1352 1348 1343 1337 1331 1325 1317
1392 1386 1381 1376 1371 1366 1362 1357 1353 1349 1345 1342 1340 1339 1338 1338 1342 1346 1351 1355 1357 1360 1362 1365 1366 1366 1366 1366 1364 1363 1361 1359 1358 1355 1351 1346 1342 1338 1334 1329 1322 1314 1307
1384 1379 1373 1368 1363 1358 1353 1348 1344 1340 1336 1333 1331 1329 1329 1329 1333 1337 1343 1345 1347 1350 1353 1355 1356 1357 1357 1357 1356 1354 1352 1350 1348 1345 1342 1338 1334 1330 1326 1320 1313 1307 1297
1377 1371 1366 1361 1355 1350 1345 1340 1335 1331 1327 1324 1321 1320 1320 1321 1323 1328 1333 1336 1339 1341 1344 1345 1347 1348 1348 1348 1348 1346 1344 1341 1339 1335 1332 1327 1323 1319 1315 1311 1305 1299 1291
1370 1364 1359 1354 1348 1343 1337 1332 1327 1323 1319 1316 1313 1312 1311 1312 1315 1318 1323 1326 1329 1332 1334 1336 1338 1339 1339 1339 1339 1338 1336 1334 1331 1327 1323 1318 1314 1310 1305 1301 1296 1291 1285
1362 1356 1351 1346 1341 1335 1329 1324 1320 1315 1311 1308 1306 1304 1303 1304 1305 1308 1314 1318 1321 1324 1326 1328 1330 1331 1331 1331 1331 1330 1328 1327 1323 1319 1315 1311 1306 1302 1297 1292 1287 1282 1276
1354 1349 1344 1338 1333 1328 1322 1317 1312 1308 1304 1301 1299 1297 1296 1296 1297 1300 1305 1310 1314 1316 1318 1321 1322 1323 1323 1323 1323 1322 1321 1318 1315 1311 1307 1303 1299 1294 1288 1283 1278 1272 1267
1347 1341 1336 1331 1325 1320 1315 1310 1305 1301 1297 1294 1292 1290 1289 1289 1290 1293 1296 1302 1306 1310 1312 1314 1315 1316 1316 1316 1315 1314 1312 1310 1307 1304 1300 1296 1291 1287 1282 1276 1271 1265 1259
1340 1335 1329 1324 1319 1313 1308 1304 1299 1295 1292 1288 1286 1284 1284 1283 1284 1287 1290 1294 1298 1302 1305 1307 1308 1309 1309 1308 1307 1306 1305 1303 1300 1297 1293 1289 1285 1280 1275 1270 1265 1259 1254
1333 1328 1323 1317 1312 1307 1301 1296 1291 1288 1284 1281 1279 1278 1276 1278 1279 1281 1285 1289 1292 1296 1299 1299 1300 1301 1301 1301 1301 1299 1298 1296 1293 1290 1287 1283 1278 1273 1268 1264 1259 1254 1249
1328 1322 1317 1311 1306 1301 1295 1290 1284 1280 1277 1274 1272 1271 1271 1272 1274 1276 1279 1283 1287 1289 1291 1292 1294 1294 1295 1294 1294 1293 1291 1289 1287 1284 1280 1276 1272 1268 1263 1258 1253 1249 1243
1322 1316 1311 1305 1300 1295 1289 1284 1279 1274 1271 1267 1265 1264 1264 1266 1268 1271 1274 1278 1280 1283 1284 1286 1287 1288 1288 1288 1287 1286 1284 1282 1280 1277 1274 1270 1266 1262 1257 1252 1248 1243 1238
1315 1310 1304 1299 1294 1289 1283 1278 1273 1269 1265 1262 1259 1258 1258 1259 1262 1265 1269 1271 1273 1276 1278 1280 1281 1282 1282 1282 1281 1280 1278 1276 1274 1271 1268 1264 1261 1256 1252 1247 1242 1237 1233
1308 1303 1298 1293 1287 1282 1277 1272 1267 1263 1259 1256 1254 1254 1254 1255 1256 1259 1263 1265 1268 1271 1273 1275 1276 1277 1277 1276 1275 1274 1272 1270 1268 1265 1262 1259 1255 1251 1246 1241 1237 1232 1227
1301 1295 1291 1286 1281 1276 1271 1266 1261 1257 1253 1251 1249 1249 1249 1251 1252 1255 1258 1261 1263 1266 1268 1270 1271 1271 1271 1271 1270 1268 1267 1265 1262 1260 1257 1253 1249 1245 1241 1236 1231 1226 1221
1294 1289 1284 1279 1274 1269 1264 1259 1255 1251 1248 1245 1244 1244 1245 1246 1248 1251 1253 1257 1260 1262 1264 1266 1266 1266 1266 1265 1264 1263 1261 1259 1257 1255 1251 1248 1244 1239 1235 1230 1225 1221 1216
1287 1282 1276 1271 1266 1261 1257 1252 1248 1245 1242 1240 1240 1240 1240 1242 1244 1247 1250 1253 1256 1259 1260 1261 1262 1262 1261 1260 1259 1258 1257 1255 1253 1250 1247 1243 1239 1234 1229 1224 1219 1215 1210
1280 1275 1269 1264 1259 1254 1249 1245 1242 1239 1237 1236 1235 1236 1237 1238 1241 1244 1247 1250 1253 1255 1256 1257 1258 1258 1257 1256 1255 1254 1252 1251 1248 1245 1242 1238 1233 1229 1224 1218 1213 1209 1205
1273 1267 1262 1256 1251 1247 1242 1239 1236 1234 1232 1231 1232 1232 1234 1235 1238 1241 1244 1247 1250 1252 1253 1254 1254 1254 1253 1252 1251 1250 1249 1247 1244 1241 1238 1233 1229 1223 1218 1213 1208 1203 1199
1266 1260 1255 1250 1244 1240 1236 1233 1230 1229 1228 1228 1228 1229 1231 1233 1236 1239 1242 1245 1247 1249 1250 1251 1251 1251 1250 1249 1248 1247 1245 1243 1241 1238 1234 1229 1224 1219 1213 1208 1203 1198 1193